| time (UTC) | temp F | wind direction | speed knots | gust knots | rain 1hr in | rain 24hr in | rain mn in | humidity % | barometer mb |
| 20260502205538 | 73 | 302 | 5.2 | 13.0 | 0.00 | 0.00 | 0.00 | 28 | 1018.0 |
| 20260502205041 | 73 | 202 | 7.0 | 13.0 | 0.00 | 0.00 | 0.00 | 26 | 1018.1 |
| 20260502204551 | 73 | 295 | 5.2 | 10.4 | 0.00 | 0.00 | 0.00 | 27 | 1018.0 |
| 20260502204039 | 73 | 275 | 5.2 | 10.4 | 0.00 | 0.00 | 0.00 | 27 | 1018.1 |
| 20260502203539 | 72 | 355 | 3.5 | 10.4 | 0.00 | 0.00 | 0.00 | 28 | 1018.2 |
| 20260502203044 | 72 | 278 | 5.2 | 9.6 | 0.00 | 0.00 | 0.00 | 26 | 1018.3 |
| 20260502202539 | 73 | 277 | 0.9 | 12.2 | 0.00 | 0.00 | 0.00 | 24 | 1018.4 |
| 20260502202041 | 73 | 227 | 3.5 | 12.2 | 0.00 | 0.00 | 0.00 | 24 | 1018.5 |
| 20260502201555 | 73 | 258 | 7.0 | 12.2 | 0.00 | 0.00 | 0.00 | 24 | 1018.5 |
| 20260502201038 | 73 | 233 | 4.3 | 9.6 | 0.00 | 0.00 | 0.00 | 25 | 1018.5 |
| 20260502200538 | 73 | 184 | 5.2 | 9.6 | 0.00 | 0.00 | 0.00 | 25 | 1018.6 |
| 20260502200056 | 73 | 185 | 6.1 | 10.4 | 0.00 | 0.00 | 0.00 | 24 | 1018.7 |
| 20260502195539 | 73 | 280 | 4.3 | 10.4 | 0.00 | 0.00 | 0.00 | 24 | 1018.7 |
| 20260502195044 | 73 | 261 | 3.5 | 10.4 | 0.00 | 0.00 | 0.00 | 26 | 1018.7 |
| 20260502194550 | 73 | 228 | 2.6 | 10.4 | 0.00 | 0.00 | 0.00 | 25 | 1018.8 |
| 20260502194040 | 72 | 219 | 5.2 | 10.4 | 0.00 | 0.00 | 0.00 | 23 | 1018.9 |
| 20260502193539 | 72 | 191 | 5.2 | 8.7 | 0.00 | 0.00 | 0.00 | 24 | 1018.9 |
| 20260502193050 | 72 | 259 | 3.5 | 7.8 | 0.00 | 0.00 | 0.00 | 24 | 1019.0 |
| 20260502192544 | 71 | 0 | 2.6 | 7.8 | 0.00 | 0.00 | 0.00 | 25 | 1019.2 |
| 20260502192041 | 71 | 232 | 1.7 | 7.8 | 0.00 | 0.00 | 0.00 | 25 | 1019.3 |
| 20260502191557 | 71 | 266 | 3.5 | 7.8 | 0.00 | 0.00 | 0.00 | 24 | 1019.3 |
| 20260502191038 | 71 | 257 | 2.6 | 8.7 | 0.00 | 0.00 | 0.00 | 24 | 1019.4 |
| 20260502190538 | 71 | 300 | 5.2 | 8.7 | 0.00 | 0.00 | 0.00 | 25 | 1019.5 |
| 20260502190104 | 71 | 256 | 4.3 | 8.7 | 0.00 | 0.00 | 0.00 | 25 | 1019.6 |
| 20260502185540 | 71 | 227 | 0.9 | 8.7 | 0.00 | 0.00 | 0.00 | 25 | 1019.6 |
| 20260502185040 | 71 | 259 | 3.5 | 8.7 | 0.00 | 0.00 | 0.00 | 24 | 1019.7 |
| 20260502184557 | 71 | 231 | 4.3 | 8.7 | 0.00 | 0.00 | 0.00 | 25 | 1019.8 |
| 20260502184040 | 71 | 188 | 4.3 | 8.7 | 0.00 | 0.00 | 0.00 | 28 | 1019.9 |
| 20260502183540 | 71 | 161 | 5.2 | 8.7 | 0.00 | 0.00 | 0.00 | 26 | 1019.9 |
| 20260502183049 | 71 | 203 | 3.5 | 8.7 | 0.00 | 0.00 | 0.00 | 26 | 1019.9 |
| 20260502182537 | 71 | 193 | 4.3 | 8.7 | 0.00 | 0.00 | 0.00 | 29 | 1020.0 |
| 20260502182039 | 71 | 226 | 5.2 | 8.7 | 0.00 | 0.00 | 0.00 | 29 | 1020.1 |
| 20260502181549 | 71 | 214 | 2.6 | 8.7 | 0.00 | 0.00 | 0.00 | 28 | 1020.1 |
| 20260502181040 | 71 | 215 | 3.5 | 8.7 | 0.00 | 0.00 | 0.00 | 27 | 1020.1 |
| 20260502180539 | 70 | 205 | 3.5 | 8.7 | 0.00 | 0.00 | 0.00 | 26 | 1020.2 |
| 20260502180119 | 70 | 190 | 2.6 | 6.1 | 0.00 | 0.00 | 0.00 | 25 | 1020.2 |
| 20260502164039 | 65 | 200 | 1.7 | 6.1 | 0.00 | 0.00 | 0.00 | 33 | 1020.3 |
| 20260502163539 | 64 | 211 | 1.7 | 6.1 | 0.00 | 0.00 | 0.00 | 33 | 1020.3 |
| 20260502163052 | 64 | 240 | 2.6 | 6.1 | 0.00 | 0.00 | 0.00 | 35 | 1020.4 |
| 20260502162539 | 63 | 151 | 0.9 | 4.3 | 0.00 | 0.00 | 0.00 | 35 | 1020.4 |
| 20260502162039 | 63 | 154 | 1.7 | 4.3 | 0.00 | 0.00 | 0.00 | 35 | 1020.4 |
| 20260502161548 | 62 | 197 | 1.7 | 3.5 | 0.00 | 0.00 | 0.00 | 37 | 1020.4 |
| 20260502161039 | 62 | 253 | 0.0 | 3.5 | 0.00 | 0.00 | 0.00 | 36 | 1020.3 |
| 20260502160541 | 61 | 254 | 1.7 | 3.5 | 0.00 | 0.00 | 0.00 | 37 | 1020.3 |
| 20260502152044 | 58 | 219 | 0.0 | 2.6 | 0.00 | 0.00 | 0.00 | 40 | 1020.4 |
| 20260502151600 | 57 | 223 | 0.9 | 2.6 | 0.00 | 0.00 | 0.00 | 42 | 1020.5 |
| 20260502151040 | 57 | 0 | 0.0 | 2.6 | 0.00 | 0.00 | 0.00 | 43 | 1020.4 |
| 20260502150539 | 57 | 233 | 0.9 | 2.6 | 0.00 | 0.00 | 0.00 | 44 | 1020.4 |
| 20260502130541 | 37 | 360 | 0.9 | 1.7 | 0.00 | 0.00 | 0.00 | 70 | 1020.1 |
| 20260502123540 | 38 | 55 | 0.9 | 2.6 | 0.00 | 0.00 | 0.00 | 69 | 1020.0 |
| 20260502123053 | 38 | 55 | 0.0 | 1.7 | 0.00 | 0.00 | 0.00 | 69 | 1020.0 |
| 20260502122540 | 38 | 0 | 0.0 | 0.0 | 0.00 | 0.00 | 0.00 | 69 | 1020.0 |
| 20260502122039 | 38 | 0 | 0.0 | 0.9 | 0.00 | 0.00 | 0.00 | 69 | 1020.0 |
| 20260502121603 | 38 | 0 | 0.0 | 1.7 | 0.00 | 0.00 | 0.00 | 69 | 1019.9 |
| 20260502121042 | 38 | 0 | 0.0 | 1.7 | 0.00 | 0.00 | 0.00 | 69 | 1019.9 |
| 20260502120540 | 38 | 55 | 0.9 | 2.6 | 0.00 | 0.00 | 0.00 | 69 | 1019.9 |
| 20260502115542 | 38 | 55 | 0.9 | 3.5 | 0.00 | 0.00 | 0.00 | 69 | 1019.9 |
| 20260502115040 | 38 | 55 | 0.9 | 5.2 | 0.00 | 0.00 | 0.00 | 68 | 1019.9 |
| 20260502114550 | 38 | 55 | 1.7 | 5.2 | 0.00 | 0.00 | 0.00 | 68 | 1019.9 |
| 20260502114040 | 39 | 50 | 3.5 | 5.2 | 0.00 | 0.00 | 0.00 | 68 | 1019.8 |
| 20260502113540 | 39 | 61 | 1.7 | 3.5 | 0.00 | 0.00 | 0.00 | 68 | 1019.9 |
| 20260502113049 | 39 | 90 | 1.7 | 4.3 | 0.00 | 0.00 | 0.00 | 67 | 1020.1 |
| 20260502112539 | 39 | 137 | 1.7 | 4.3 | 0.00 | 0.00 | 0.00 | 67 | 1019.9 |
| 20260502112039 | 39 | 155 | 1.7 | 4.3 | 0.00 | 0.00 | 0.00 | 67 | 1020.1 |
| 20260502111558 | 40 | 166 | 1.7 | 4.3 | 0.00 | 0.00 | 0.00 | 67 | 1020.0 |
| 20260502111041 | 40 | 0 | 0.9 | 2.6 | 0.00 | 0.00 | 0.00 | 67 | 1020.0 |
| 20260502110539 | 40 | 50 | 0.9 | 2.6 | 0.00 | 0.00 | 0.00 | 67 | 1019.9 |
| 20260502110053 | 40 | 50 | 0.9 | 2.6 | 0.00 | 0.00 | 0.00 | 67 | 1019.9 |
| 20260502105541 | 41 | 50 | 0.0 | 2.6 | 0.00 | 0.00 | 0.00 | 67 | 1019.9 |
| 20260502105040 | 41 | 355 | 0.9 | 2.6 | 0.00 | 0.00 | 0.00 | 66 | 1020.0 |
| 20260502104548 | 41 | 355 | 0.9 | 2.6 | 0.00 | 0.00 | 0.00 | 67 | 1020.0 |
| 20260502104041 | 42 | 355 | 0.9 | 2.6 | 0.00 | 0.00 | 0.00 | 67 | 1019.9 |
| 20260502103541 | 42 | 355 | 0.9 | 3.5 | 0.00 | 0.00 | 0.00 | 67 | 1020.0 |
| 20260502103053 | 42 | 0 | 0.9 | 3.5 | 0.00 | 0.00 | 0.00 | 67 | 1020.0 |
| 20260502102541 | 42 | 355 | 1.7 | 3.5 | 0.00 | 0.00 | 0.00 | 67 | 1020.0 |
| 20260502102040 | 42 | 360 | 1.7 | 5.2 | 0.00 | 0.00 | 0.00 | 67 | 1020.0 |
| 20260502101605 | 42 | 360 | 1.7 | 5.2 | 0.00 | 0.00 | 0.00 | 68 | 1019.9 |
| 20260502101039 | 42 | 360 | 2.6 | 5.2 | 0.00 | 0.00 | 0.00 | 68 | 1019.8 |
| 20260502100539 | 42 | 360 | 0.9 | 5.2 | 0.00 | 0.00 | 0.00 | 68 | 1019.8 |
| 20260502100108 | 42 | 360 | 2.6 | 5.2 | 0.00 | 0.00 | 0.00 | 68 | 1019.9 |
| 20260502091040 | 40 | 360 | 3.5 | 4.3 | 0.00 | 0.00 | 0.00 | 67 | 1019.9 |
| 20260502090539 | 40 | 360 | 2.6 | 4.3 | 0.00 | 0.00 | 0.00 | 66 | 1019.9 |
| 20260502080104 | 42 | 360 | 0.9 | 5.2 | 0.00 | 0.00 | 0.00 | 64 | 1019.8 |
| 20260502071039 | 43 | 0 | 0.9 | 3.5 | 0.00 | 0.00 | 0.00 | 64 | 1019.5 |
| 20260502070539 | 43 | 38 | 0.9 | 3.5 | 0.00 | 0.00 | 0.00 | 64 | 1019.4 |
| 20260502070046 | 43 | 38 | 1.7 | 3.5 | 0.00 | 0.00 | 0.00 | 64 | 1019.5 |
| 20260502065540 | 43 | 42 | 2.6 | 3.5 | 0.00 | 0.00 | 0.00 | 63 | 1019.6 |
| 20260502065039 | 43 | 59 | 2.6 | 4.3 | 0.00 | 0.00 | 0.00 | 63 | 1019.6 |
| 20260502064551 | 43 | 67 | 2.6 | 4.3 | 0.00 | 0.00 | 0.00 | 63 | 1019.6 |
| 20260502064039 | 43 | 65 | 2.6 | 4.3 | 0.00 | 0.00 | 0.00 | 62 | 1019.6 |
| 20260502063539 | 43 | 64 | 1.7 | 3.5 | 0.00 | 0.00 | 0.00 | 62 | 1019.6 |
| 20260502063047 | 44 | 72 | 1.7 | 3.5 | 0.00 | 0.00 | 0.00 | 62 | 1019.6 |
| 20260502062539 | 44 | 89 | 1.7 | 3.5 | 0.00 | 0.00 | 0.00 | 61 | 1019.7 |
| 20260502062038 | 44 | 136 | 0.9 | 2.6 | 0.00 | 0.00 | 0.00 | 61 | 1019.7 |
| 20260502061548 | 44 | 136 | 1.7 | 3.5 | 0.00 | 0.00 | 0.00 | 61 | 1019.7 |
| 20260502061038 | 45 | 138 | 1.7 | 3.5 | 0.00 | 0.00 | 0.00 | 60 | 1019.6 |
| 20260502060539 | 45 | 147 | 0.9 | 2.6 | 0.00 | 0.00 | 0.00 | 60 | 1019.7 |
| 20260502060108 | 45 | 63 | 0.0 | 2.6 | 0.00 | 0.00 | 0.00 | 60 | 1019.6 |
| 20260502055540 | 45 | 360 | 0.0 | 2.6 | 0.00 | 0.00 | 0.00 | 60 | 1019.6 |
| 20260502055040 | 46 | 0 | 0.0 | 2.6 | 0.00 | 0.00 | 0.00 | 60 | 1019.6 |
| 20260502054544 | 46 | 63 | 1.7 | 3.5 | 0.00 | 0.00 | 0.00 | 59 | 1019.4 |
| 20260502054039 | 46 | 63 | 1.7 | 3.5 | 0.00 | 0.00 | 0.00 | 59 | 1019.3 |
| 20260502053540 | 46 | 66 | 1.7 | 3.5 | 0.00 | 0.00 | 0.00 | 59 | 1019.5 |
| 20260502053059 | 47 | 66 | 1.7 | 2.6 | 0.00 | 0.00 | 0.00 | 58 | 1019.4 |
| 20260502052539 | 47 | 67 | 0.9 | 2.6 | 0.00 | 0.00 | 0.00 | 58 | 1019.5 |
| 20260502052039 | 47 | 360 | 0.9 | 2.6 | 0.00 | 0.00 | 0.00 | 58 | 1019.4 |
| 20260502051558 | 48 | 360 | 1.7 | 2.6 | 0.00 | 0.00 | 0.00 | 57 | 1019.4 |
| 20260502051040 | 48 | 67 | 1.7 | 4.3 | 0.00 | 0.00 | 0.00 | 57 | 1019.4 |
| 20260502050542 | 48 | 66 | 1.7 | 4.3 | 0.00 | 0.00 | 0.00 | 56 | 1019.4 |
| 20260502050057 | 49 | 69 | 1.7 | 3.5 | 0.00 | 0.00 | 0.00 | 56 | 1019.4 |
| 20260502045541 | 49 | 66 | 1.7 | 3.5 | 0.00 | 0.00 | 0.00 | 56 | 1019.4 |
| 20260502045040 | 49 | 78 | 1.7 | 3.5 | 0.00 | 0.00 | 0.00 | 55 | 1019.3 |
| 20260502044549 | 49 | 78 | 1.7 | 2.6 | 0.00 | 0.00 | 0.00 | 55 | 1019.3 |
| 20260502044039 | 50 | 78 | 1.7 | 2.6 | 0.00 | 0.00 | 0.00 | 55 | 1019.3 |
| 20260502043539 | 50 | 78 | 0.0 | 2.6 | 0.00 | 0.00 | 0.00 | 54 | 1019.3 |
| 20260502043110 | 50 | 78 | 0.0 | 5.2 | 0.00 | 0.00 | 0.00 | 54 | 1019.3 |
| 20260502042542 | 50 | 78 | 0.9 | 5.2 | 0.00 | 0.00 | 0.00 | 54 | 1019.3 |
| 20260502042038 | 50 | 78 | 1.7 | 5.2 | 0.00 | 0.00 | 0.00 | 54 | 1019.2 |
| 20260502041552 | 50 | 93 | 2.6 | 5.2 | 0.00 | 0.00 | 0.00 | 54 | 1019.3 |
| 20260502041039 | 50 | 89 | 1.7 | 3.5 | 0.00 | 0.00 | 0.00 | 55 | 1019.1 |
| 20260502040539 | 50 | 92 | 1.7 | 3.5 | 0.00 | 0.00 | 0.00 | 55 | 1019.1 |
| 20260502040053 | 51 | 93 | 0.9 | 3.5 | 0.00 | 0.00 | 0.00 | 55 | 1019.0 |
| 20260502035537 | 51 | 92 | 1.7 | 3.5 | 0.00 | 0.00 | 0.00 | 54 | 1019.0 |
| 20260502035039 | 51 | 78 | 1.7 | 3.5 | 0.00 | 0.00 | 0.00 | 54 | 1018.9 |
| 20260502034549 | 52 | 74 | 1.7 | 3.5 | 0.00 | 0.00 | 0.00 | 53 | 1018.9 |
| 20260502034037 | 53 | 60 | 1.7 | 2.6 | 0.00 | 0.00 | 0.00 | 52 | 1018.8 |
| 20260502033536 | 53 | 360 | 0.9 | 1.7 | 0.00 | 0.00 | 0.00 | 52 | 1018.7 |
| 20260502033056 | 54 | 328 | 0.9 | 4.3 | 0.00 | 0.00 | 0.00 | 51 | 1018.6 |
| 20260502032539 | 54 | 360 | 0.9 | 4.3 | 0.00 | 0.00 | 0.00 | 51 | 1018.6 |
| 20260502032039 | 55 | 360 | 1.7 | 4.3 | 0.00 | 0.00 | 0.00 | 50 | 1018.5 |
| 20260502031552 | 55 | 360 | 1.7 | 3.5 | 0.00 | 0.00 | 0.00 | 49 | 1018.4 |
| 20260502031039 | 56 | 360 | 0.9 | 2.6 | 0.00 | 0.00 | 0.00 | 48 | 1018.4 |
| 20260502030540 | 57 | 360 | 0.9 | 2.6 | 0.00 | 0.00 | 0.00 | 47 | 1018.3 |
| 20260502030051 | 57 | 360 | 0.9 | 2.6 | 0.00 | 0.00 | 0.00 | 46 | 1018.3 |
| 20260502025541 | 58 | 360 | 0.0 | 1.7 | 0.00 | 0.00 | 0.00 | 45 | 1018.2 |
| 20260502025036 | 59 | 360 | 0.0 | 3.5 | 0.00 | 0.00 | 0.00 | 45 | 1018.2 |
| 20260502024545 | 59 | 360 | 0.0 | 3.5 | 0.00 | 0.00 | 0.00 | 44 | 1018.2 |
| 20260502024039 | 59 | 360 | 1.7 | 5.2 | 0.00 | 0.00 | 0.00 | 43 | 1018.1 |
| 20260502023539 | 59 | 360 | 1.7 | 5.2 | 0.00 | 0.00 | 0.00 | 42 | 1018.1 |
| 20260502023050 | 60 | 360 | 2.6 | 5.2 | 0.00 | 0.00 | 0.00 | 41 | 1018.1 |
| 20260502022541 | 60 | 360 | 2.6 | 7.0 | 0.00 | 0.00 | 0.00 | 41 | 1018.1 |
| 20260502022039 | 60 | 360 | 2.6 | 7.0 | 0.00 | 0.00 | 0.00 | 40 | 1018.1 |
| 20260502021553 | 60 | 360 | 3.5 | 7.0 | 0.00 | 0.00 | 0.00 | 39 | 1018.0 |
| 20260502021039 | 61 | 360 | 4.3 | 8.7 | 0.00 | 0.00 | 0.00 | 39 | 1017.9 |
| 20260502020539 | 61 | 265 | 4.3 | 8.7 | 0.00 | 0.00 | 0.00 | 39 | 1017.9 |
| 20260502020051 | 61 | 360 | 5.2 | 8.7 | 0.00 | 0.00 | 0.00 | 40 | 1017.9 |
| 20260502015539 | 62 | 296 | 5.2 | 10.4 | 0.00 | 0.00 | 0.00 | 40 | 1017.8 |
| 20260502015039 | 62 | 360 | 4.3 | 10.4 | 0.00 | 0.00 | 0.00 | 40 | 1017.8 |
| 20260502014545 | 62 | 360 | 6.1 | 10.4 | 0.00 | 0.00 | 0.00 | 39 | 1017.8 |
| 20260502014039 | 63 | 360 | 7.0 | 12.2 | 0.00 | 0.00 | 0.00 | 39 | 1017.7 |
| 20260502013540 | 63 | 360 | 6.1 | 12.2 | 0.00 | 0.00 | 0.00 | 38 | 1017.8 |
| 20260502013056 | 63 | 245 | 7.0 | 10.4 | 0.00 | 0.00 | 0.00 | 37 | 1017.8 |
| 20260502012537 | 64 | 360 | 5.2 | 13.0 | 0.00 | 0.00 | 0.00 | 36 | 1017.7 |
| 20260502012039 | 64 | 360 | 7.0 | 13.0 | 0.00 | 0.00 | 0.00 | 35 | 1017.7 |
| 20260502011609 | 64 | 360 | 8.7 | 13.0 | 0.00 | 0.00 | 0.00 | 35 | 1017.6 |
| 20260502011039 | 65 | 360 | 7.8 | 12.2 | 0.00 | 0.00 | 0.00 | 36 | 1017.7 |
| 20260502010539 | 65 | 272 | 6.1 | 12.2 | 0.00 | 0.00 | 0.00 | 37 | 1017.6 |
| 20260502010051 | 65 | 252 | 7.0 | 12.2 | 0.00 | 0.00 | 0.00 | 36 | 1017.7 |
| 20260502005539 | 66 | 218 | 8.7 | 12.2 | 0.00 | 0.00 | 0.00 | 36 | 1017.6 |
| 20260502005039 | 66 | 259 | 6.1 | 14.8 | 0.00 | 0.00 | 0.00 | 37 | 1017.7 |
| 20260502004600 | 66 | 248 | 6.1 | 14.8 | 0.00 | 0.00 | 0.00 | 37 | 1017.7 |
| 20260502004038 | 66 | 250 | 8.7 | 14.8 | 0.00 | 0.00 | 0.00 | 35 | 1017.7 |
| 20260502003538 | 66 | 275 | 6.1 | 14.8 | 0.00 | 0.00 | 0.00 | 31 | 1017.6 |
| 20260502003050 | 67 | 267 | 9.6 | 15.6 | 0.00 | 0.00 | 0.00 | 30 | 1017.6 |
| 20260502002538 | 67 | 274 | 6.1 | 15.6 | 0.00 | 0.00 | 0.00 | 31 | 1017.7 |
| 20260502002041 | 67 | 253 | 7.8 | 13.0 | 0.00 | 0.00 | 0.00 | 30 | 1017.6 |
| 20260502001552 | 67 | 267 | 7.0 | 13.0 | 0.00 | 0.00 | 0.00 | 31 | 1017.8 |
| 20260502001038 | 67 | 282 | 8.7 | 13.0 | 0.00 | 0.00 | 0.00 | 30 | 1017.7 |
| 20260502000539 | 67 | 306 | 6.1 | 13.0 | 0.00 | 0.00 | 0.00 | 30 | 1017.8 |
| 20260502000111 | 67 | 296 | 5.2 | 14.8 | 0.00 | 0.00 | 0.00 | 31 | 1017.8 |
| 20260501235539 | 67 | 270 | 8.7 | 14.8 | 0.00 | 0.00 | 0.00 | 31 | 1017.8 |
| 20260501235041 | 66 | 296 | 8.7 | 15.6 | 0.00 | 0.00 | 0.00 | 30 | 1017.8 |
| 20260501234550 | 66 | 292 | 7.8 | 15.6 | 0.00 | 0.00 | 0.00 | 30 | 1017.8 |
| 20260501234039 | 66 | 321 | 7.0 | 20.0 | 0.00 | 0.00 | 0.00 | 31 | 1017.8 |
| 20260501233539 | 66 | 273 | 7.0 | 20.0 | 0.00 | 0.00 | 0.00 | 31 | 1017.9 |
| 20260501233047 | 66 | 318 | 10.4 | 20.0 | 0.00 | 0.00 | 0.00 | 30 | 1017.9 |
| 20260501232538 | 66 | 327 | 8.7 | 15.6 | 0.00 | 0.00 | 0.00 | 31 | 1017.9 |
| 20260501232038 | 66 | 295 | 8.7 | 14.8 | 0.00 | 0.00 | 0.00 | 30 | 1017.9 |
| 20260501231602 | 66 | 277 | 8.7 | 14.8 | 0.00 | 0.00 | 0.00 | 30 | 1018.0 |
| 20260501231038 | 66 | 298 | 7.8 | 16.5 | 0.00 | 0.00 | 0.00 | 30 | 1018.0 |
| 20260501230538 | 66 | 275 | 8.7 | 16.5 | 0.00 | 0.00 | 0.00 | 31 | 1018.1 |
| 20260501230054 | 66 | 267 | 9.6 | 16.5 | 0.00 | 0.00 | 0.00 | 30 | 1018.1 |
| 20260501225541 | 66 | 271 | 9.6 | 14.8 | 0.00 | 0.00 | 0.00 | 30 | 1018.2 |
| 20260501225040 | 66 | 286 | 9.6 | 16.5 | 0.00 | 0.00 | 0.00 | 31 | 1018.2 |
| 20260501224600 | 66 | 268 | 8.7 | 20.0 | 0.00 | 0.00 | 0.00 | 30 | 1018.2 |
| 20260501224039 | 66 | 292 | 10.4 | 20.0 | 0.00 | 0.00 | 0.00 | 30 | 1018.2 |
| 20260501223542 | 66 | 293 | 8.7 | 15.6 | 0.00 | 0.00 | 0.00 | 30 | 1018.2 |
| 20260501223051 | 66 | 306 | 9.6 | 15.6 | 0.00 | 0.00 | 0.00 | 31 | 1018.4 |
| 20260501222539 | 66 | 274 | 6.1 | 19.1 | 0.00 | 0.00 | 0.00 | 30 | 1018.4 |
| 20260501222040 | 66 | 286 | 10.4 | 19.1 | 0.00 | 0.00 | 0.00 | 30 | 1018.5 |
| 20260501221613 | 66 | 344 | 11.3 | 19.1 | 0.00 | 0.00 | 0.00 | 30 | 1018.5 |
| 20260501221040 | 66 | 275 | 7.0 | 17.4 | 0.00 | 0.00 | 0.00 | 31 | 1018.7 |
| 20260501220539 | 65 | 325 | 11.3 | 17.4 | 0.00 | 0.00 | 0.00 | 29 | 1018.7 |
| 20260501220052 | 65 | 306 | 8.7 | 15.6 | 0.00 | 0.00 | 0.00 | 31 | 1018.7 |
| 20260501215539 | 65 | 360 | 10.4 | 15.6 | 0.00 | 0.00 | 0.00 | 30 | 1018.8 |
| 20260501215039 | 65 | 360 | 9.6 | 18.2 | 0.00 | 0.00 | 0.00 | 31 | 1018.8 |
| 20260501214554 | 65 | 360 | 8.7 | 18.2 | 0.00 | 0.00 | 0.00 | 31 | 1018.9 |
| 20260501214041 | 65 | 360 | 11.3 | 17.4 | 0.00 | 0.00 | 0.00 | 32 | 1019.0 |
| 20260501213541 | 65 | 360 | 11.3 | 17.4 | 0.00 | 0.00 | 0.00 | 33 | 1019.0 |
| 20260501213053 | 65 | 360 | 12.2 | 17.4 | 0.00 | 0.00 | 0.00 | 32 | 1019.1 |
| 20260501212540 | 65 | 360 | 9.6 | 15.6 | 0.00 | 0.00 | 0.00 | 32 | 1019.1 |
| 20260501212039 | 65 | 360 | 8.7 | 20.0 | 0.00 | 0.00 | 0.00 | 33 | 1019.2 |
| 20260501211553 | 65 | 360 | 8.7 | 20.0 | 0.00 | 0.00 | 0.00 | 33 | 1019.2 |
| 20260501211040 | 65 | 360 | 10.4 | 20.0 | 0.00 | 0.00 | 0.00 | 33 | 1019.2 |
| 20260501210539 | 65 | 232 | 11.3 | 16.5 | 0.00 | 0.00 | 0.00 | 31 | 1019.1 |
| 20260501210050 | 65 | 278 | 11.3 | 16.5 | 0.00 | 0.00 | 0.00 | 33 | 1019.2 |